Weather History for Fort Leonard Wood, MO

Change the Weather History Date:

Friday, February 7, 2014

  Actual Average Record
Temperature  
Mean Temperature 10 °F -  
Max Temperature 21 °F 44 °F 65 °F (2009)
Min Temperature 0 °F 28 °F 0 °F (2014)
Degree Days  
Heating Degree Days 54    
Moisture  
Dew Point 4 °F    
Average Humidity 70    
Maximum Humidity 99    
Minimum Humidity 56    
Precipitation  
Precipitation 0.00 in - - ()
Sea Level Pressure  
Sea Level Pressure 30.39 in    
Wind  
Wind Speed 5 mph (ESE)    
Max Wind Speed 10 mph    
Max Gust Speed -    
Visibility 10 miles    
Events Snow    
Averages and records for this station are not official NWS values.
T = Trace of Precipitation, MM = Missing Value Source: NWS Daily Summary

Daily Weather History Graph

Daily Weather History Graph

Search for Another Location

Airport:

Trip Planner

Search our weather history database for the weather conditions in past years. The results will help you decide how hot, cold, wet, or windy it might be!

Date:

Astronomy

Feb. 07, 2014 Rise Set
Actual Time 7:06 AM CST 5:39 PM CST
Civil Twilight 6:39 AM CST 6:06 PM CST
Nautical Twilight 6:08 AM CST 6:37 PM CST
Astronomical Twilight 5:37 AM CST 7:08 PM CST
Moon 11:51 AM CST (2/7) 1:22 AM CST (2/7)
Length of Visible Light 11h 26m
Length of Day
10h 32m
First Quarter, 59% of the Moon is Illuminated
Feb 7
First Quarter
Feb 14
Full
Feb 22
Last Quarter
Mar 1
New
Mar 8
First Quarter

Hourly Weather History & Observations

Time (CST) Temp. Windchill Dew Point Humidity Pressure Visibility Wind Dir Wind Speed Gust Speed Precip Events Conditions
12:58 AM 2.5 °F -5.0 °F -2.7 °F 79% 30.49 in 10.0 mi NNE 3.5 mph - N/A   Clear
1:58 AM 0.5 °F - -2.2 °F 88% 30.49 in 10.0 mi NNE 2.3 mph - N/A   Clear
2:58 AM -0.4 °F - -0.9 °F 98% 30.50 in 10.0 mi East 2.3 mph - N/A   Clear
3:58 AM -0.6 °F - -0.8 °F 99% 30.48 in 10.0 mi East 2.3 mph - N/A   Partly Cloudy
4:58 AM 0.1 °F -7.7 °F -0.2 °F 98% 30.51 in 10.0 mi South 3.5 mph - N/A   Partly Cloudy
5:58 AM 1.6 °F -6.0 °F 1.2 °F 98% 30.48 in 10.0 mi ESE 3.5 mph - N/A   Clear
6:58 AM 0.5 °F - 0.3 °F 99% 30.50 in 10.0 mi SSE 2.3 mph - N/A   Mostly Cloudy
7:58 AM 4.6 °F -2.5 °F 1.2 °F 86% 30.51 in 10.0 mi SSE 3.5 mph - N/A   Overcast
8:58 AM 5.5 °F -6.3 °F 0.9 °F 81% 30.51 in 10.0 mi SE 6.9 mph - N/A   Overcast
9:58 AM 7.9 °F -4.6 °F 1.2 °F 74% 30.52 in 10.0 mi SE 8.1 mph - N/A   Overcast
10:58 AM 9.9 °F 0.2 °F 1.6 °F 69% 30.49 in 10.0 mi ESE 5.8 mph - N/A   Overcast
11:58 AM 12.7 °F 3.6 °F 1.6 °F 61% 30.49 in 10.0 mi SSE 5.8 mph - N/A   Overcast
12:58 PM 15.1 °F 6.4 °F 2.3 °F 57% 30.42 in 10.0 mi South 5.8 mph - N/A   Overcast
1:58 PM 16.2 °F 10.6 °F 2.8 °F 56% 30.40 in 10.0 mi NE 3.5 mph - N/A   Overcast
2:58 PM 17.4 °F 10.4 °F 4.1 °F 56% 30.37 in 10.0 mi ENE 4.6 mph - N/A   Overcast
3:58 PM 18.3 °F 10.2 °F 4.8 °F 56% 30.35 in 10.0 mi East 5.8 mph - N/A   Overcast
4:58 PM 18.7 °F 11.9 °F 5.7 °F 57% 30.35 in 10.0 mi East 4.6 mph - N/A   Overcast
5:58 PM 18.9 °F 13.7 °F 6.4 °F 58% 30.36 in 10.0 mi East 3.5 mph - N/A   Overcast
6:54 PM 19.4 °F 12.8 °F 8.6 °F 63% 30.28 in 10.0 mi ENE 4.6 mph - N/A Snow Light Snow
6:58 PM 19.0 °F 12.3 °F 7.9 °F 62% 30.35 in 10.0 mi East 4.6 mph - 0.00 in Snow Light Snow
7:06 PM 19.4 °F 12.8 °F 8.6 °F 63% 30.27 in 10.0 mi East 4.6 mph - N/A   Overcast
7:58 PM 19.4 °F 14.3 °F 9.3 °F 65% 30.35 in 10.0 mi ESE 3.5 mph - 0.00 in   Overcast
8:58 PM 20.5 °F 11.7 °F 9.1 °F 62% 30.32 in 10.0 mi SSE 6.9 mph - N/A   Overcast
9:03 PM 21.2 °F 12.6 °F 10.4 °F 63% 30.25 in 10.0 mi SSE 6.9 mph - N/A   Overcast
9:13 PM 21.2 °F 10.1 °F 8.6 °F 58% 30.24 in 10.0 mi SSE 10.4 mph - N/A   Overcast
9:18 PM 21.2 °F 10.1 °F 8.6 °F 58% 30.24 in 10.0 mi SSE 10.4 mph - N/A   Overcast
9:38 PM 19.4 °F 8.6 °F 8.6 °F 63% 30.24 in 10.0 mi SSE 9.2 mph - N/A   Overcast
9:58 PM 20.1 °F 9.5 °F 8.6 °F 61% 30.31 in 10.0 mi South 9.2 mph - N/A   Overcast
10:58 PM 20.1 °F 11.3 °F 8.6 °F 61% 30.31 in 10.0 mi South 6.9 mph - N/A   Overcast
11:58 PM 19.8 °F 11.9 °F 9.1 °F 63% 30.29 in 10.0 mi South 5.8 mph - N/A   Overcast